Tracking 27401 objects as of 3-Jun-2023
HD Live streaming from Space Station
objects crossing your sky now

FLOCK 4A 13

Track FLOCK 4A 13 now!
10-day predictions
FLOCK 4A 13 is classified as:


NORAD ID: 44102
Int'l Code: 2019-018AA
Perigee: 301.7 km
Apogee: 315.1 km
Inclination: 97.3 °
Period: 90.5 minutes
Semi major axis: 6679 km
RCS: Unknown
Launch date: April 1, 2019
Source: United States (US)
Launch site: SRIHARIKOTA (SRI)
Your satellite tracking list
Your tracking list is empty




NASA's NSSDC Master Catalog

Two Line Element Set (TLE):
1 44102U 19018AA  23153.70352820  .00613735  14889-3  20236-2 0  9994
2 44102  97.2525 221.2186 0010084 248.0261 111.9941 15.90360207232816
Source of the keplerian elements: AFSPC